BSAT-2C

导读

BSAT-2C是由日本东京广播卫星系统公司运营的广播通信卫星,由美国轨道科学公司基于STAR平台建造,于2003年6月11日在法属圭亚那库鲁由阿丽亚娜5G火箭发射升空。 它运行于地球静止轨道东经110°,接替2001年发射失败的BSAT-2b卫星,配备8部Ku波段转发器,为日本全国提供数字电视直播服务,覆盖超1300万户家庭,设计寿命10年。

Basic Information
目录编号:
27830
目录名称:
BSAT-2C
国际标识:
2003-028A
轨道中心:
EARTH
卫星名称:
BSAT-2C
卫星全名:
--
卫星状态:
在轨 (已飞行8434 天)
发射日期:
2003-06-11 UTC
国别 :
日本 (JP)
星等 :
--
Orbit Information
数据来源 国际轨道数据 AOE轨道数据
星历时间 2026-07-14T12:56:05+0800
5小时前
查看轨道信息
2026-07-12T19:00:00+0800
1天前
查看轨道信息
半长轴 42467.41km 42467.552km
偏心率 0.0004848 0.0004965
轨道倾角 10.242° 10.239°
近地点辐角 267.834° 269.836°
升交点赤经 51.767° 51.787°
平近点角 252.555° 346.528°
近地点 36068.684km 36068.329km
远地点 36109.862km 36110.501km
周期 1451.588分钟 1451.595分钟
每日圈数 0.992017 0.992012
Detailed Information
使用方式:
暂无
2D Orbit Map
3D Orbit Map
Orbit Altitude Analysis Chart
Orbit Inclination Analysis Chart
Orbit Comprehensive Analysis Chart
View Comprehensive Chart